RH
54 55 58 62 65 65 64 60 55 52 51 50 50 44 43 46 44 45 45 37 33 35 33 32 30 26 24 25 25 26 27 25 22 22 27 32 30 25 24 23 19 17
59 63 65 67 71 71 66 62 57 52 49 50 51 49 48 48 44 46 49 41 35 34 33 35 35 28 24 25 25 27 27 26 25 22 23 29 31 27 23 22 22 19
76 76 72 70 76 77 69 62 57 51 48 49 52 53 53 50 45 48 51 47 41 37 35 37 37 31 25 24 24 27 28 27 26 25 24 25 29 30 25 21 22 20
95 90 85 82 83 81 71 62 58 54 49 52 57 58 57 53 48 48 51 52 50 42 37 39 41 35 27 24 24 26 28 29 27 26 26 25 27 30 27 21 22 21
107 104 102 95 87 79 73 68 64 58 52 55 61 61 60 56 50 49 51 55 56 49 42 43 43 39 33 27 24 26 29 30 28 25 26 27 26 28 28 22 21 22
109 108 103 93 83 75 75 75 71 61 54 59 65 60 57 56 51 50 52 55 59 54 47 46 46 44 40 31 25 27 31 32 30 25 25 28 28 28 30 27 24 24
102 98 91 84 77 70 70 74 73 63 53 57 60 50 49 55 52 50 51 53 58 55 51 51 47 45 43 36 30 31 33 34 32 27 24 28 32 31 30 29 28 27
86 83 80 75 68 60 60 63 65 61 54 51 46 36 44 57 52 50 51 49 50 51 50 49 43 40 42 40 37 37 38 36 33 30 26 27 33 35 30 28 25 24
81 79 74 68 63 55 51 52 55 58 54 48 38 29 43 59 52 49 53 47 45 47 45 43 41 41 44 45 47 48 45 41 35 31 28 26 32 37 33 29 26 23
84 81 73 67 63 54 47 51 60 60 50 45 36 24 39 59 53 50 55 48 45 47 43 42 46 48 47 50 56 58 52 45 37 31 29 26 29 35 34 33 33 30
68 69 65 63 63 51 39 48 65 65 54 50 39 26 41 59 51 52 60 53 47 47 44 45 48 48 47 49 56 62 59 49 38 33 30 26 27 32 34 33 34 34
40 42 48 60 68 50 29 42 70 76 68 62 52 47 58 59 48 54 63 57 50 48 46 47 44 41 42 45 54 64 63 51 39 34 31 26 26 29 31 31 29 29
29 45 62 78 74 42 26 52 81 83 74 73 74 76 73 59 48 54 62 60 55 50 48 47 39 35 38 44 55 66 70 61 46 37 31 25 24 27 29 29 25 23
48 79 89 77 51 25 36 71 86 84 85 90 94 91 80 64 53 53 60 64 59 52 49 45 37 34 38 48 59 64 72 75 59 41 33 26 23 25 26 25 23 21
54 72 60 40 32 41 68 90 92 94 100 101 99 97 90 77 62 54 59 65 63 55 51 46 40 36 38 49 57 51 56 69 60 40 33 29 23 23 24 23 22 19
58 54 43 38 55 80 96 101 100 100 101 101 101 102 97 86 70 60 59 63 64 60 55 50 43 40 42 47 48 43 49 63 57 37 31 31 26 24 24 22 20 18
59 60 69 73 86 98 101 103 102 98 99 102 102 103 103 95 81 69 62 63 67 64 60 55 47 46 48 47 45 45 50 57 51 37 31 31 27 24 24 21 18 17
77 88 97 98 100 101 100 103 101 98 102 103 104 109 105 90 76 69 64 66 71 70 64 58 52 48 45 44 47 47 43 43 40 35 33 32 26 23 22 20 17 14
98 102 100 100 102 100 102 102 99 100 103 103 107 105 86 66 60 60 61 69 76 74 68 61 54 47 44 49 54 47 38 37 37 37 36 32 26 22 19 17 15 12
96 100 100 104 103 99 101 101 98 101 102 104 105 90 67 58 60 61 65 75 78 74 69 62 55 51 55 60 58 45 37 38 39 39 36 30 24 22 18 15 13 11
95 101 103 103 100 97 98 97 97 99 101 103 97 75 59 58 61 64 72 78 81 79 73 66 60 60 65 65 56 45 40 42 42 39 34 29 24 21 18 15 12 10
97 102 105 103 101 98 98 97 96 99 101 98 81 59 53 58 63 71 78 80 84 85 78 71 67 68 70 65 55 45 42 45 46 41 35 30 24 20 18 15 11 11
98 102 102 102 101 99 99 98 98 100 96 81 62 49 54 66 72 76 80 83 85 82 75 72 72 73 72 65 53 44 43 47 49 45 39 32 24 20 17 14 12 11
103 103 99 101 104 100 99 100 101 98 79 59 52 55 67 78 79 78 80 83 82 76 72 73 76 77 75 65 54 46 45 49 49 45 39 30 23 21 18 14 13 11
103 102 100 102 101 99 102 105 101 87 65 57 65 75 81 84 80 77 78 78 76 75 79 83 84 83 79 69 57 49 47 50 49 43 35 26 22 22 19 15 13 11
103 103 104 103 100 102 105 100 87 73 68 78 88 88 86 84 80 79 78 75 75 81 90 91 86 84 82 71 57 50 48 48 45 38 30 25 24 24 20 16 13 12
Wind_Speed
42 42 42 43 44 45 47 49 51 53 55 55 51 48 52 59 66 70 68 63 58 59 61 64 69 73 74 73 71 70 68 66 62 56 51 48 45 44 44 45 48 50
44 44 44 45 46 47 49 51 53 54 57 57 53 50 53 60 68 70 67 62 60 61 62 65 70 73 75 75 73 71 70 70 66 61 55 51 47 45 44 44 46 48
45 46 47 48 48 49 51 53 54 56 58 58 54 53 56 61 68 70 66 62 62 63 64 67 71 74 76 77 76 73 72 71 69 64 59 54 49 46 44 43 44 46
46 47 49 52 52 52 53 55 56 57 60 59 55 56 59 63 68 70 67 64 64 65 66 67 71 74 76 77 78 76 73 72 71 67 63 57 50 46 43 41 41 44
47 48 51 54 56 56 56 58 59 59 61 60 57 58 62 65 68 71 69 67 66 66 66 68 71 75 76 78 78 77 74 73 73 70 65 59 52 46 42 39 39 41
46 48 53 57 58 59 60 61 61 61 62 61 58 61 65 66 68 71 71 69 67 67 68 69 72 75 77 77 77 77 75 74 74 72 68 62 55 48 43 40 38 39
46 50 54 58 60 61 62 63 64 63 63 62 61 65 68 66 67 71 71 69 68 67 69 72 74 77 79 77 76 76 76 75 75 75 70 64 57 50 45 42 40 39
48 53 56 59 61 63 64 65 65 63 63 64 66 70 68 65 68 72 71 70 70 70 72 75 77 79 79 77 76 76 76 76 77 76 72 66 59 52 47 45 43 40
50 56 58 61 63 65 67 67 65 63 65 68 71 73 70 67 69 73 71 71 72 72 74 77 78 78 78 78 78 78 78 78 79 78 74 68 60 54 49 47 45 44
53 58 60 62 65 66 69 69 65 65 69 72 74 75 72 69 71 73 72 72 74 74 75 77 78 79 80 80 80 80 80 81 82 81 77 70 63 56 51 48 47 46
57 62 64 65 67 69 72 71 68 70 73 75 77 78 74 70 72 74 72 73 75 75 76 78 79 81 83 83 82 81 83 84 84 83 79 73 66 59 53 50 48 47
65 69 69 67 68 73 78 74 70 71 73 76 80 79 73 70 73 74 73 74 76 77 77 79 82 84 84 85 83 83 86 86 84 83 81 75 68 61 55 51 49 48
71 69 66 67 71 78 82 75 68 70 74 76 78 74 69 69 74 76 75 77 79 79 79 81 84 85 85 86 84 85 87 85 83 86 84 77 70 62 57 53 51 50
69 63 66 72 76 81 81 72 67 72 75 75 72 68 67 71 75 77 78 80 80 80 81 84 86 86 85 85 84 87 90 86 86 90 88 80 72 65 59 56 54 53
68 68 74 77 77 79 75 68 68 74 75 72 68 67 71 74 76 79 81 82 82 82 84 86 87 86 86 85 86 91 93 88 89 93 91 82 74 67 62 60 58 57
69 71 76 75 72 70 66 64 70 76 75 72 70 71 75 76 77 81 84 85 85 84 86 88 87 87 87 87 91 95 94 90 92 95 91 83 75 69 64 62 61 61
70 69 73 71 63 60 61 65 73 77 76 73 72 74 77 78 81 85 88 88 86 85 88 89 87 87 88 91 94 95 92 91 93 95 90 83 76 70 66 64 63 63
66 65 65 61 56 58 63 69 74 76 74 71 72 76 79 83 87 89 89 88 86 86 89 89 89 91 94 96 96 95 93 93 93 92 87 81 77 72 68 66 66 66
60 59 58 56 59 64 68 72 75 73 70 70 73 79 84 88 89 88 88 87 86 88 90 92 94 98 100 98 97 97 96 94 91 88 84 79 76 73 71 69 69 69
51 52 54 58 63 68 71 75 75 71 69 73 78 84 88 90 88 87 87 87 88 90 93 96 99 101 100 98 98 99 97 93 89 84 80 77 77 76 74 73 72 71
44 51 60 65 68 72 75 76 74 72 73 77 82 88 90 89 87 86 87 88 89 91 95 100 102 101 99 98 99 98 95 91 86 81 79 80 81 80 78 76 74 72
48 57 65 70 72 75 76 76 75 76 78 82 87 90 90 88 87 86 88 89 89 91 95 100 101 100 99 99 99 97 93 88 83 80 82 84 84 84 81 79 75 71
57 64 70 73 75 77 78 78 78 80 83 87 90 90 89 87 87 88 90 91 91 93 97 100 100 100 100 100 100 97 93 88 84 83 85 88 88 86 83 79 75 71
62 69 73 74 75 77 78 79 80 84 88 91 90 89 88 87 89 91 93 94 95 97 100 101 101 101 101 101 100 98 93 89 85 85 88 91 90 87 83 78 74 70
65 69 70 72 74 77 78 80 83 88 91 90 89 88 88 89 92 95 96 97 98 100 101 102 102 101 102 101 100 97 93 88 86 88 90 92 90 87 82 77 72 69
67 70 73 76 78 80 82 85 88 90 91 89 87 88 89 92 94 97 98 99 99 101 102 102 102 102 102 101 99 95 91 88 88 90 92 92 90 85 81 77 72 68
Wind_Direction
315 317 320 322 324 325 325 325 327 329 332 333 333 331 333 336 337 339 339 337 336 338 339 339 340 341 340 339 338 336 335 334 331 327 321 313 303 291 282 275 269 264
314 315 317 320 322 322 323 324 325 327 330 332 332 330 330 333 336 337 338 336 335 335 336 338 339 340 341 340 338 337 335 334 332 328 324 317 310 299 287 278 271 265
313 314 317 319 320 320 321 322 323 325 328 331 331 331 330 332 335 337 336 335 334 333 333 335 337 339 340 341 339 337 335 334 332 329 325 320 315 307 295 283 274 267
312 313 316 320 319 317 317 320 322 323 326 327 328 330 330 330 333 335 335 333 333 333 332 333 335 337 338 340 340 337 335 334 333 330 326 321 317 312 302 290 279 271
311 312 316 320 320 318 317 318 320 321 323 325 325 328 328 328 331 333 333 333 332 332 332 332 333 335 336 338 339 337 335 334 333 330 326 321 318 313 306 295 285 276
311 312 316 319 320 319 318 317 318 319 321 323 322 325 325 325 328 331 331 331 330 330 332 332 331 332 334 335 337 337 335 333 332 330 326 322 318 314 307 299 291 284
311 312 316 318 319 319 318 316 316 317 319 321 321 322 323 322 325 328 330 330 329 329 331 331 330 331 332 333 335 336 334 332 332 330 327 323 319 314 307 299 293 287
310 312 314 317 318 318 318 315 314 315 317 319 320 322 321 320 324 327 329 329 329 329 330 330 330 330 331 331 333 334 333 331 330 329 327 323 318 314 308 300 294 289
309 310 312 315 316 316 315 313 311 313 317 318 319 321 320 320 323 327 328 329 329 329 330 330 329 330 330 330 331 331 330 329 329 328 327 323 318 313 310 304 298 293
306 307 308 312 313 313 313 311 308 311 316 318 319 320 319 319 323 326 327 327 328 328 328 329 328 328 329 329 329 329 328 327 327 328 328 325 319 313 311 308 303 298
305 306 306 309 309 310 312 310 306 308 313 316 317 318 318 318 322 325 325 326 326 326 327 327 327 327 327 328 328 327 327 326 326 327 328 326 320 314 310 307 303 300
305 305 304 305 305 308 311 309 306 308 311 313 315 317 316 318 322 324 323 323 324 325 325 325 325 326 327 328 327 327 327 326 326 328 328 326 321 315 310 306 301 299
306 304 301 302 304 307 309 306 306 309 311 312 314 315 315 316 320 322 321 322 323 323 323 323 324 326 328 329 328 327 327 325 324 327 328 326 321 315 310 306 302 299
306 301 298 301 303 305 305 302 305 310 312 314 314 314 313 315 317 319 320 320 321 320 320 321 324 326 328 330 329 327 326 324 323 326 327 325 321 316 311 308 304 301
304 300 299 301 303 303 301 299 305 311 314 315 313 311 312 313 314 317 319 319 318 318 318 321 324 326 327 328 328 327 325 322 321 324 326 324 321 316 312 309 306 303
304 301 300 302 302 299 296 298 306 312 314 313 310 309 311 311 312 315 317 317 317 316 318 321 323 326 327 327 326 325 323 320 319 323 325 323 321 317 312 310 308 305
302 299 298 298 296 294 295 299 306 312 313 310 308 309 310 311 312 313 314 316 315 315 318 321 323 324 325 325 324 324 322 319 319 321 323 322 320 317 313 310 309 307
297 293 290 289 289 292 295 298 305 311 311 308 309 310 311 311 311 311 312 314 314 315 317 319 320 322 323 323 324 324 322 321 320 321 322 320 319 316 313 311 310 309
290 283 279 280 286 291 293 297 305 309 308 307 308 309 310 310 310 310 312 314 313 314 315 317 319 321 322 323 324 324 323 322 321 321 320 319 318 316 314 312 311 310
286 278 278 281 285 287 290 296 303 305 304 306 307 308 309 309 309 311 312 313 313 313 314 316 319 321 322 323 323 323 323 322 321 321 320 319 318 317 315 314 312 310
282 280 282 282 282 284 289 295 299 301 302 305 306 307 308 308 309 311 312 312 312 313 315 317 319 321 321 322 322 322 322 321 320 320 319 319 318 317 315 314 312 311
277 279 281 280 281 284 289 294 296 298 301 304 304 305 306 307 308 310 310 311 313 314 315 316 318 319 319 320 321 321 320 319 318 318 318 319 319 317 315 314 312 311
274 276 277 278 280 284 289 292 294 297 300 302 303 304 305 306 307 309 310 312 312 312 313 314 316 317 318 319 320 320 319 318 316 316 317 318 318 317 315 314 312 310
272 274 275 277 280 285 288 290 292 296 299 300 301 302 304 305 307 308 310 311 311 311 312 314 316 317 318 319 320 319 318 317 316 316 318 318 318 317 315 313 312 310
270 271 273 277 281 284 286 289 292 295 297 299 300 302 304 305 306 308 309 310 311 311 313 314 316 317 318 318 318 317 317 316 316 316 317 318 317 316 314 313 312 311
270 269 272 277 281 283 285 289 292 295 297 298 301 302 304 305 306 307 308 309 310 311 313 314 314 315 316 317 316 315 315 315 316 316 317 318 317 315 314 313 312 311